Location: Poughquag
(41.6090°N, 73.6820°W)
Time: 04:45:10
(UTC-04:00)

STARLINK-1338 - Pass Details

Date: 29 May 2020
Orbit: 549 x 551 km, 53.0° (Epoch: 26 September)

Event Time Altitude Azimuth Distance (km) Brightness Sun altitude
Rises 04:22:41 0° 295° (WNW) 2,748 6.9 -10.1°
Reaches altitude 10° 04:25:38 10° 316° (NW) 1,839 6.3 -9.7°
Maximum altitude 04:28:23 17° 358° (N) 1,445 6.3 -9.3°
Drops below altitude 10° 04:31:07 10° 39° (NE) 1,826 7.8 -8.9°
Sets 04:34:01 0° 60° (ENE) 2,718 9.3 -8.5°
